PST,Max TemperatureF,Mean TemperatureF,Min TemperatureF,Max Dew PointF,MeanDew PointF,Min DewpointF,Max Humidity, Mean Humidity, Min Humidity, Max Sea Level PressureIn, Mean Sea Level PressureIn, Min Sea Level PressureIn, Max VisibilityMiles, Mean VisibilityMiles, Min VisibilityMiles, Max Wind SpeedMPH, Mean Wind SpeedMPH, Max Gust SpeedMPH,PrecipitationIn, CloudCover, Events, WindDirDegrees
2013-11-1,82,65,48,38,31,26,44,30,14,30.13,30.05,29.98,10,10,9,8,4,,0.00,0,,260
2013-11-2,84,66,50,38,32,27,48,29,15,29.99,29.89,29.79,10,10,10,10,5,,0.00,0,,259
2013-11-3,86,70,53,44,33,26,53,29,12,29.82,29.75,29.69,10,10,6,12,5,,0.00,0,,249
2013-11-4,75,63,51,43,39,33,61,42,24,29.86,29.74,29.69,10,10,10,18,7,25,0.00,0,,262
2013-11-5,73,60,48,43,30,19,69,37,13,30.17,30.06,29.87,10,10,10,18,7,23,0.00,0,,320
2013-11-6,75,59,43,27,20,14,47,25,10,30.28,30.20,30.15,10,10,10,8,6,,0.00,0,,282
2013-11-7,82,64,46,30,21,14,31,22,8,30.17,30.08,29.99,10,10,8,8,5,,0.00,0,,269
2013-11-8,82,66,50,34,25,18,42,24,9,30.02,29.96,29.89,10,10,10,9,4,,0.00,0,,270
2013-11-9,81,64,48,47,33,26,72,36,16,30.05,30.00,29.94,10,10,9,6,2,,0.00,0,,244
2013-11-10,82,66,50,38,32,28,52,33,14,30.09,30.03,29.99,10,10,10,8,5,,0.00,0,,292
2013-11-11,87,70,52,41,33,27,40,29,14,30.05,30.01,29.96,10,10,10,8,6,,0.00,0,,281
2013-11-12,88,72,55,45,36,27,45,30,11,30.12,30.05,30.01,10,10,10,8,6,,0.00,0,,289
2013-11-13,88,72,55,46,37,30,45,30,15,30.05,29.97,29.91,10,10,10,7,5,,0.00,0,,260
2013-11-14,87,71,55,41,36,26,51,33,11,29.96,29.84,29.70,10,10,8,8,4,,0.00,0,,262
2013-11-15,80,70,57,60,45,35,76,47,29,29.68,29.61,29.54,10,10,4,28,9,37,0.00,0,,231
2013-11-16,72,63,54,45,42,40,64,49,31,29.87,29.76,29.66,10,10,10,21,11,26,0.00,0,,256
2013-11-17,72,61,50,46,43,38,66,54,40,30.04,29.98,29.88,10,10,10,9,5,,0.00,0,,287
2013-11-18,77,62,48,49,44,39,69,53,33,30.09,30.01,29.96,10,10,10,7,5,,0.00,0,,282
2013-11-19,75,64,54,48,46,44,69,54,33,29.96,29.90,29.83,10,10,10,9,6,,0.00,0,,298
2013-11-20,78,66,55,49,46,43,64,51,32,29.86,29.82,29.77,10,10,10,15,4,,0.00,0,,266
2013-11-21,72,64,57,60,52,48,84,64,46,29.88,29.83,29.80,10,10,8,12,6,,0.00,2,Rain,155
2013-11-22,60,56,53,55,52,47,97,86,67,29.97,29.89,29.82,10,7,1,15,6,,0.95,7,Rain,277
2013-11-23,63,58,50,50,48,47,93,73,56,30.09,30.03,29.97,10,10,8,6,3,,0.00,6,,308
2013-11-24,64,55,46,49,45,43,93,73,45,30.19,30.14,30.09,10,10,9,8,3,,0.00,0,,266
2013-11-25,71,58,45,46,42,38,86,61,31,30.24,30.18,30.14,10,10,10,8,5,,0.00,0,,257
2013-11-26,70,57,44,47,43,38,86,64,31,30.26,30.18,30.10,10,10,10,6,3,,0.00,0,,273
2013-11-27,71,60,48,46,41,37,80,57,29,30.09,30.00,29.93,10,10,10,8,4,,0.00,0,,263
2013-11-28,70,58,45,43,39,36,76,56,30,30.05,29.98,29.94,10,10,10,7,3,,0.00,0,,264
2013-11-29,71,60,48,46,41,37,74,55,29,30.15,30.11,30.05,10,10,10,6,4,,0.00,2,,264
2013-11-30,73,60,48,45,42,38,77,54,27,30.18,30.13,30.07,10,10,10,7,4,,0.00,0,,261